RH
10 13 9 7 6 11 19 19 19 21 34 44 49 50 50 69 94 98 97 99 98 100 99 90 98 96 100 100 98 43 10 4 3 3 3 3 3 4 6 9 10 12 17 22
13 13 12 7 8 19 20 21 23 36 55 56 55 53 62 89 97 100 97 98 97 100 100 99 98 100 100 100 54 28 7 3 3 3 3 3 4 7 9 10 12 17 21 19
14 15 13 13 14 18 18 18 19 31 47 52 41 74 92 92 97 99 97 100 98 96 99 100 100 91 98 79 40 13 4 3 3 3 4 5 6 8 9 11 12 18 20 24
13 12 12 14 17 20 20 17 17 23 34 39 45 79 79 78 71 78 60 98 99 98 98 100 99 98 100 44 26 6 3 3 3 3 4 5 7 8 9 11 16 20 26 20
8 7 7 11 15 18 17 16 16 18 24 39 58 61 89 74 64 61 68 90 100 100 99 98 96 100 65 31 10 5 3 3 3 3 4 6 8 9 11 15 21 26 20 13
8 6 7 7 13 16 16 16 16 16 21 36 36 52 86 74 71 58 71 85 99 99 99 99 99 98 32 17 8 4 3 3 3 4 6 7 8 9 13 19 24 22 15 18
9 7 9 12 14 14 15 15 19 22 25 35 48 53 70 73 64 75 77 82 98 100 88 100 99 66 38 11 6 3 3 3 3 5 6 7 8 11 17 20 21 19 19 20
16 12 7 12 13 14 14 14 18 30 45 58 53 73 57 63 78 76 85 87 96 100 99 98 94 46 28 7 4 4 3 3 4 6 7 8 9 17 18 19 20 20 20 36
12 10 6 9 13 14 14 14 15 17 32 54 74 61 73 62 74 78 87 98 97 99 100 98 50 49 14 5 4 3 3 3 5 6 7 8 16 17 18 19 20 21 25 26
10 9 6 4 10 14 14 14 18 20 33 70 81 85 63 55 64 76 74 96 97 99 98 46 64 17 5 4 3 3 3 4 5 7 8 9 17 17 18 19 21 22 25 8
11 12 11 9 11 13 15 17 20 22 20 70 83 68 54 64 71 62 56 93 98 90 42 54 11 6 4 4 3 3 3 3 6 7 9 10 11 16 19 21 21 18 6 5
10 10 10 10 14 14 17 17 18 21 29 43 54 71 66 70 66 69 56 71 72 48 43 37 8 5 4 4 3 3 2 4 6 6 6 7 17 19 20 17 8 4 6 7
10 14 15 13 13 16 14 17 17 20 24 42 61 79 86 85 82 74 49 27 36 19 22 16 8 4 4 3 3 2 2 4 5 5 7 16 18 15 7 4 4 6 7 9
9 12 15 15 15 19 17 14 18 21 25 46 47 58 90 92 86 73 26 24 23 23 20 10 4 4 4 3 3 2 2 3 4 7 12 11 5 4 4 4 6 8 10 14
14 14 14 11 12 21 17 18 19 19 23 27 32 32 42 72 75 48 25 30 24 22 8 4 4 5 4 3 2 2 2 3 4 5 4 3 3 4 5 7 9 11 15 18
14 16 14 12 12 20 23 20 19 19 22 24 36 47 59 84 78 47 26 22 19 7 3 3 5 5 4 3 2 2 2 2 2 3 3 3 4 5 8 10 13 16 20 23
15 16 14 20 22 22 24 23 20 22 23 23 33 28 52 70 65 34 16 18 8 3 3 4 5 5 4 3 3 2 2 2 3 3 4 4 6 8 11 13 17 21 23 26
15 15 17 17 24 43 29 24 23 22 26 28 28 29 36 51 53 38 24 7 3 2 3 4 5 4 4 4 3 3 3 3 4 4 5 7 8 11 14 17 21 23 24 25
13 17 19 23 35 34 32 29 27 24 42 37 32 37 53 71 60 59 15 5 3 2 3 4 5 5 4 4 4 4 4 4 5 6 7 8 10 13 16 20 21 20 21 25
17 16 18 33 40 50 36 32 28 27 52 53 46 34 32 35 27 6 4 3 2 3 3 4 5 5 4 5 5 5 5 5 6 7 8 10 12 15 19 19 17 17 20 25
23 18 23 36 35 35 32 31 32 29 28 34 54 41 32 10 9 2 2 2 2 3 3 3 5 5 5 5 5 5 5 6 6 7 9 10 13 17 18 16 14 14 18 24
25 31 37 39 34 35 32 32 31 27 20 19 47 53 41 14 9 2 2 2 2 3 4 4 5 6 6 5 5 5 6 6 7 8 9 11 14 17 16 13 11 11 14 20
28 24 30 38 32 30 28 29 26 23 26 28 37 55 20 5 2 2 2 2 3 3 4 4 4 5 6 6 6 6 6 6 7 8 10 12 14 16 14 11 9 9 10 13
23 21 35 36 32 29 26 30 30 31 26 27 29 22 10 1 1 2 2 2 3 4 4 4 4 5 6 7 7 7 7 7 8 8 10 12 14 15 13 10 8 8 8 10
30 24 33 34 33 32 33 29 34 38 30 28 34 16 4 1 1 2 2 2 3 4 4 4 4 4 5 6 7 8 8 9 9 9 10 12 14 13 11 8 7 7 8 8
36 34 34 33 31 30 32 34 32 28 21 22 15 12 4 2 1 2 2 3 3 3 4 4 4 4 4 4 4 6 7 8 9 10 11 12 12 12 10 8 6 7 7 8
Wind_Speed
22 20 22 14 15 6 8 10 14 26 16 23 22 15 13 12 10 11 9 8 9 9 15 16 14 24 21 20 22 20 22 24 26 27 28 28 28 27 26 25 26 27 29 30
19 23 16 12 13 15 14 18 21 15 17 18 15 14 11 8 9 9 12 11 10 9 12 19 20 13 22 19 19 22 23 25 27 29 29 30 27 25 24 23 25 27 29 31
23 16 8 14 14 17 16 22 20 21 20 14 14 12 12 9 8 10 10 9 11 12 13 17 14 18 23 19 20 22 24 26 28 28 27 25 23 22 20 21 24 25 27 30
23 27 19 14 20 15 20 11 19 21 22 22 19 5 11 7 4 6 10 10 11 13 12 16 15 23 19 18 21 23 25 26 28 28 26 25 23 22 23 25 25 26 28 29
29 28 21 22 25 13 21 16 17 12 18 16 24 4 4 8 2 5 19 14 12 14 13 15 22 16 19 20 20 22 24 26 27 28 26 23 22 22 24 24 24 26 28 31
24 21 18 22 20 17 16 20 16 16 9 4 10 19 6 5 2 5 17 13 13 13 15 20 16 16 16 21 21 23 26 28 29 27 24 23 23 24 23 24 25 27 29 31
25 31 26 23 21 19 21 22 7 5 4 4 11 11 6 5 10 8 9 8 11 12 14 16 14 15 15 18 19 25 26 27 27 25 24 23 24 23 24 26 28 29 31 33
31 18 33 30 29 25 24 23 16 6 4 5 9 3 7 8 7 9 10 6 11 12 14 14 15 10 14 16 19 21 25 26 25 23 23 24 22 23 25 27 28 30 31 32
19 27 28 32 27 24 24 30 24 22 4 6 4 6 10 12 9 8 11 9 12 15 13 14 7 11 13 16 19 22 25 24 23 21 23 23 22 24 26 27 27 28 28 28
17 11 21 25 27 24 25 24 16 14 5 3 5 6 11 11 17 14 14 13 17 16 13 6 7 11 14 17 20 23 24 24 23 22 24 24 23 25 26 27 27 26 26 29
37 18 7 17 27 31 29 28 21 13 18 5 4 5 10 11 12 9 12 14 16 10 7 2 9 12 14 18 20 22 23 23 22 23 24 24 22 23 25 27 27 27 28 31
40 21 32 25 16 31 28 31 30 18 6 5 8 6 9 8 10 8 10 13 12 11 6 1 9 11 14 19 20 21 23 23 23 24 24 22 22 23 25 25 26 27 30 33
37 27 10 15 20 19 36 37 29 27 23 12 11 6 16 15 13 10 11 14 14 8 4 3 7 10 15 18 19 21 22 22 23 24 21 21 23 23 24 24 26 29 32 34
36 33 33 18 10 23 32 37 31 23 13 13 8 17 24 22 18 12 13 12 9 7 3 2 5 11 14 17 18 20 21 21 23 21 21 21 22 23 25 27 28 30 33 36
36 38 34 31 27 19 32 26 27 22 12 11 15 14 18 23 16 9 12 12 9 6 4 1 6 10 13 16 17 19 20 21 21 20 21 21 23 24 26 27 29 32 34 37
39 33 34 30 27 24 15 27 28 25 21 13 15 18 16 20 16 14 12 11 9 8 5 4 5 9 12 15 17 18 19 20 20 20 20 22 22 23 25 27 29 32 34 36
32 35 34 26 22 23 17 25 28 22 18 19 21 10 23 23 16 13 13 11 10 9 6 4 5 8 12 15 16 17 18 19 20 20 20 21 22 23 25 28 30 32 35 37
32 35 29 24 16 2 10 26 23 22 18 20 12 7 9 9 14 13 11 9 12 9 7 5 5 7 12 14 16 17 18 18 19 19 20 21 22 24 26 28 31 34 37 40
33 31 26 14 6 12 12 24 31 31 24 17 9 14 19 19 20 19 15 15 12 9 7 5 3 6 10 13 15 16 16 17 18 18 19 20 23 25 27 29 32 35 38 40
25 29 28 17 9 5 26 27 22 17 24 21 14 8 16 25 27 24 23 18 13 10 8 4 3 5 9 12 13 15 15 16 17 18 19 21 23 25 27 30 32 35 38 39
32 34 31 16 7 9 30 24 20 18 16 24 24 12 9 15 14 21 22 19 15 10 8 5 4 4 7 10 11 14 14 16 16 18 19 21 23 25 27 29 31 34 36 37
32 29 26 20 9 8 27 23 25 15 14 11 28 18 14 19 22 21 19 17 14 11 9 6 5 4 6 7 10 13 13 14 16 17 19 20 22 23 26 28 31 34 36 38
33 38 38 25 17 9 21 16 17 19 10 17 22 24 19 27 26 21 18 18 15 13 9 7 6 5 4 6 9 11 12 13 15 17 18 19 21 23 26 29 32 34 37 39
33 39 25 14 21 17 12 18 18 18 11 14 20 23 27 28 25 22 19 18 16 13 11 8 7 5 4 5 8 10 11 13 15 16 18 20 22 24 27 30 33 35 38 41
37 37 31 28 23 21 21 17 22 22 18 18 22 24 30 28 24 20 19 18 16 13 11 9 8 6 4 6 8 10 11 13 14 16 18 20 22 26 29 32 34 37 39 42
39 41 38 37 27 25 25 23 19 18 21 22 30 32 32 27 23 23 18 17 15 13 10 9 8 6 4 5 7 9 11 13 15 16 17 19 21 24 26 29 33 36 37 39
Wind_Direction
221 229 233 238 239 248 264 275 281 305 258 223 216 222 235 226 218 226 229 248 266 274 269 289 278 299 297 294 321 330 338 335 334 335 336 334 333 333 333 334 330 329 327 330
217 234 241 238 235 236 257 276 278 269 191 200 198 209 220 218 228 230 233 245 258 268 261 276 293 290 302 304 323 339 338 335 338 340 339 338 338 337 337 336 331 330 331 331
227 247 230 216 220 238 257 266 271 226 201 207 222 206 216 229 234 238 237 233 247 261 269 255 258 310 286 323 333 337 339 339 343 343 342 341 339 336 334 331 332 333 333 332
230 238 232 221 224 233 267 259 284 231 220 215 208 170 237 246 249 266 301 251 246 262 282 258 270 282 304 328 337 337 342 341 343 342 342 342 344 344 343 342 343 340 336 334
227 239 222 222 222 232 255 282 271 261 232 210 202 239 230 188 280 318 281 269 242 251 248 257 273 278 320 328 338 341 341 346 346 344 346 348 347 347 344 346 342 341 340 339
240 242 234 226 235 236 252 281 269 255 236 172 203 205 198 218 311 313 290 247 233 242 247 261 267 298 321 331 343 341 349 347 346 346 349 350 349 348 348 347 345 345 345 345
231 228 218 220 232 235 244 255 259 255 259 180 144 190 173 234 211 242 249 235 214 219 257 251 271 299 325 338 340 346 346 345 345 347 351 349 349 350 350 348 347 349 350 349
218 242 221 218 226 232 232 242 231 201 190 146 184 194 260 266 234 230 230 215 207 222 236 250 282 307 324 341 348 344 345 345 348 350 351 351 353 353 350 347 348 350 351 353
206 234 233 223 220 224 232 238 248 240 199 112 200 245 252 243 234 234 233 201 206 220 223 263 277 312 334 347 351 347 345 347 350 353 354 354 355 352 349 347 349 350 351 351
211 243 245 224 218 221 235 233 224 219 169 115 224 256 231 215 224 214 226 202 202 209 232 231 298 333 353 352 352 348 347 350 355 355 355 354 350 349 348 347 349 350 350 348
219 224 209 220 224 218 222 229 229 239 227 146 156 245 247 240 208 223 217 195 204 211 213 212 357 353 351 354 355 350 351 357 358 356 355 354 351 351 351 350 351 353 353 354
219 228 240 230 223 222 219 225 227 232 224 144 171 186 173 184 179 207 204 196 196 192 163 351 348 346 357 360 357 353 358 1 360 358 358 357 359 357 357 358 359 357 356 354
212 220 221 245 242 236 225 225 232 230 244 185 153 193 163 179 187 204 200 182 173 146 102 9 335 352 7 1 359 0 3 4 3 2 6 5 3 2 5 6 3 359 357 354
214 215 222 210 211 223 218 223 228 226 211 175 182 168 179 186 203 205 178 167 143 128 93 335 341 16 7 5 4 6 6 8 9 12 11 10 10 9 11 6 2 359 358 356
214 216 223 232 244 241 207 212 218 224 237 237 256 226 195 194 199 203 168 154 151 138 128 57 25 23 11 12 11 11 12 14 17 18 16 16 17 14 10 5 1 1 359 358
222 220 222 229 233 236 233 228 228 224 217 225 191 163 180 180 192 183 165 165 154 144 134 80 45 23 20 20 19 16 17 20 22 22 21 20 17 14 11 6 3 4 2 1
215 208 208 215 222 229 236 229 222 207 209 210 178 201 182 191 187 184 171 164 148 142 131 106 55 30 29 25 24 24 24 25 25 25 24 21 17 13 11 8 6 6 6 5
205 201 202 209 218 181 224 226 229 203 185 185 173 147 130 152 164 181 176 157 151 150 134 99 61 39 36 30 30 30 30 28 26 26 23 21 17 13 12 11 9 8 7 6
208 193 187 198 184 127 167 173 186 191 167 177 172 156 164 167 177 186 182 159 159 151 126 108 79 52 40 34 32 34 31 28 26 25 21 19 18 14 13 13 12 10 9 8
198 197 194 181 158 172 166 165 176 175 172 182 213 200 185 182 186 183 168 168 157 153 142 135 106 61 42 35 32 33 30 25 23 22 20 18 18 15 14 15 13 11 11 9
194 192 191 186 162 186 184 185 186 199 224 203 194 204 197 188 182 159 160 160 159 159 152 146 129 76 46 32 27 30 26 22 19 20 19 17 17 15 13 13 14 13 12 11
185 177 184 200 175 166 181 191 205 234 255 215 190 191 190 173 168 166 155 153 153 154 149 153 140 87 47 27 24 27 22 18 18 17 16 14 13 13 12 12 13 12 12 11
195 193 184 211 202 199 209 228 241 241 230 173 192 184 177 170 167 163 153 153 158 156 150 154 139 95 48 25 25 21 16 14 15 13 13 12 11 11 12 12 12 11 11 12
195 196 197 186 194 207 217 209 222 224 206 171 172 172 170 172 165 159 155 155 158 151 152 154 129 96 59 31 26 19 14 15 12 11 11 10 10 10 11 10 10 11 12 12
188 194 202 200 196 196 190 199 205 200 171 169 163 172 171 172 163 157 152 155 154 153 153 152 132 102 67 40 28 18 13 13 11 11 10 11 9 8 7 8 10 11 10 12
191 189 192 199 197 204 195 194 204 198 176 170 163 166 174 171 165 155 155 153 151 149 150 154 132 108 75 48 30 20 16 13 11 11 9 9 7 9 9 7 5 7 9 11